Regional Weather Roundup
Issued by NWS

Home | Current Version | Previous Version | Text Only | Print | Product List | Glossary Off
Versions: 1 2 3 4 5 6 7 8 9 10 11 12 13 14 15 16 17 18 19 20 21 22 23 24 25 26 27 28 29 30 31 32 33 34 35 36 37 38 39 40 41 42 43 44 45 46 47 48 49 50

679
ASUS44 KLIX 250901
RWRLA
LOUISIANA WEATHER ROUNDUP
NATIONAL WEATHER SERVICE NEW ORLEANS LA
400 AM CDT FRI APR 25 2014

NOTE: "FAIR" INDICATES FEW OR NO CLOUDS BELOW 12,000 FEET WITH NO
      SIGNIFICANT WEATHER AND/OR OBSTRUCTIONS TO VISIBILITY.
      SKY/WX - SKY CONDITION AND SIGNIFICANT WEATHER.
      TMP - AIR TEMPERATURE.    DP   - DEWPOINT TEMPERATURE.
      RH  - RELATIVE HUMIDITY.  PRES - PRESSURE.
      HX  - HEAT INDEX.         WCI  - WIND CHILL INDEX.

*  THESE STATIONS ARE NOT NWS OR FAA STATIONS AND ARE NOT UNDER
   NWS QUALITY CONTROL.

LAZ040-048-061>063-065-066-069-251000-
SOUTHEAST LOUISIANA

CITY           SKY/WX    TMP DP  RH WIND       PRES   REMARKS
N.O. AUDUBON   NOT AVBL
N.O. INTL ARPT MOCLDY    71  68  90 S9        29.92S
N.O. LAKEFRONT CLOUDY    72  68  87 SW8       29.92F
N.O. DOWNTOWN* CLOUDY    73  64  73 SW5       29.93S
SLIDELL        CLOUDY    72  68  87 SW6       29.91S
BATON ROUGE    CLEAR     71  67  87 SW6       29.91R
BOOTHVILLE     MOCLDY    72  70  93 SW8       29.94R
BELLE CHASSE   CLOUDY    71  67  87 CALM      29.93R
BOGALUSA*        N/A     70  65  85 SW3       29.92S
GALLIANO*      NOT AVBL
NEW ROADS*     NOT AVBL
GONZALES*      PTSUNNY   70  69  98 CALM      29.91S
HAMMOND*       NOT AVBL
HOUMA*         NOT AVBL
PORT FOURCHON*   N/A     72  70  94 SW5       29.95S

$$

LAZ041-044-053-054-251000-
SOUTHWEST LOUISIANA

CITY           SKY/WX    TMP DP  RH WIND       PRES   REMARKS
LAKE CHARLES   CLEAR     66  65  96 CALM      29.92R FOG
LAFAYETTE      CLEAR     68  68 100 SW3       29.92R
PATTERSON      PTCLDY    70  70 100 S7        29.95F
SALT POINT       N/A     73  70  90 CALM      29.92S
NEW IBERIA     MOCLDY    71  68  90 SW3       29.92S
CHENAULT AIRPK NOT AVBL

$$

LAZ027-028-251000-
CENTRAL LOUISIANA

CITY           SKY/WX    TMP DP  RH WIND       PRES   REMARKS
FORT POLK      CLOUDY    67  65  93 CALM      29.93R
ALEXANDRIA INT CLEAR     66  65  96 NW6       29.91R
ALEXANDRIA     PTCLDY    68  65  90 W3        29.92R

$$

LAZ001-002-251000-
NORTHWEST LOUISIANA

CITY           SKY/WX    TMP DP  RH WIND       PRES   REMARKS
SHREVEPORT     CLEAR     57  49  74 CALM      29.94R
BARKSDALE AFB  NOT AVBL
DTN SHREVEPORT CLEAR     59  50  72 CALM      29.94R

$$

LAZ014-016-251000-
NORTHEAST LOUISIANA

CITY           SKY/WX    TMP DP  RH WIND       PRES   REMARKS
MONROE         CLEAR     62  54  74 N7        29.93R
TALLULAH       CLEAR     67  58  72 NW5       29.91R

$$




USA.gov is the U.S. government's official web portal to all federal, state and local government web resources and services.